QPF
0.00 0.00 0.00 0.00 0.00 0.00 0.00 0.00 0.00 0.00 0.00 0.00 0.00 0.00 0.00 0.00 0.01 0.01 0.01 0.01 0.01 0.01 0.01 0.01 0.02 0.01 0.02 0.03 0.04 0.06 0.07 0.07 0.06 0.05 0.05 0.07 0.08 0.08 0.09 0.08 0.06 0.05 0.05 0.05
0.00 0.00 0.00 0.00 0.00 0.00 0.00 0.00 0.00 0.01 0.01 0.00 0.00 0.00 0.00 0.00 0.00 0.00 0.00 0.00 0.01 0.01 0.02 0.02 0.02 0.02 0.02 0.02 0.03 0.04 0.06 0.05 0.05 0.05 0.05 0.06 0.06 0.05 0.06 0.07 0.07 0.05 0.05 0.05
0.00 0.00 0.00 0.00 0.00 0.00 0.00 0.00 0.00 0.00 0.01 0.01 0.01 0.02 0.01 0.00 0.00 0.00 0.00 0.00 0.00 0.01 0.02 0.01 0.01 0.01 0.02 0.02 0.01 0.01 0.03 0.04 0.04 0.04 0.04 0.04 0.05 0.05 0.06 0.06 0.06 0.07 0.05 0.06
0.00 0.00 0.00 0.00 0.00 0.00 0.00 0.00 0.00 0.00 0.01 0.01 0.01 0.01 0.01 0.01 0.00 0.00 0.00 0.00 0.00 0.00 0.00 0.01 0.01 0.01 0.01 0.01 0.02 0.02 0.02 0.02 0.02 0.03 0.03 0.04 0.06 0.08 0.08 0.06 0.05 0.06 0.05 0.06
0.00 0.00 0.00 0.00 0.00 0.00 0.00 0.00 0.00 0.00 0.01 0.01 0.01 0.00 0.01 0.00 0.00 0.00 0.00 0.00 0.00 0.00 0.00 0.01 0.01 0.00 0.00 0.01 0.01 0.01 0.01 0.02 0.02 0.02 0.03 0.05 0.07 0.09 0.08 0.05 0.06 0.06 0.05 0.05
0.00 0.00 0.00 0.00 0.00 0.00 0.00 0.00 0.00 0.01 0.01 0.01 0.00 0.00 0.01 0.00 0.00 0.00 0.00 0.00 0.00 0.01 0.00 0.00 0.00 0.00 0.01 0.01 0.01 0.00 0.01 0.01 0.01 0.02 0.03 0.05 0.06 0.07 0.08 0.08 0.08 0.08 0.07 0.05
0.00 0.00 0.00 0.00 0.00 0.00 0.00 0.00 0.01 0.01 0.01 0.00 0.00 0.00 0.00 0.00 0.00 0.00 0.00 0.00 0.00 0.00 0.00 0.00 0.00 0.00 0.00 0.01 0.00 0.01 0.01 0.01 0.01 0.02 0.03 0.03 0.04 0.04 0.06 0.08 0.09 0.09 0.07 0.07
0.00 0.00 0.00 0.00 0.00 0.00 0.00 0.00 0.00 0.00 0.01 0.00 0.00 0.00 0.00 0.00 0.00 0.00 0.00 0.00 0.00 0.00 0.00 0.00 0.00 0.00 0.00 0.01 0.01 0.01 0.01 0.01 0.01 0.02 0.03 0.02 0.02 0.03 0.05 0.06 0.06 0.06 0.06 0.07
0.00 0.00 0.00 0.00 0.00 0.00 0.00 0.00 0.00 0.00 0.00 0.00 0.00 0.00 0.00 0.00 0.00 0.00 0.00 0.00 0.00 0.00 0.00 0.00 0.00 0.00 0.01 0.02 0.02 0.01 0.01 0.02 0.02 0.03 0.03 0.02 0.02 0.03 0.05 0.05 0.04 0.03 0.05 0.06
0.00 0.00 0.00 0.00 0.00 0.00 0.00 0.00 0.00 0.00 0.00 0.00 0.00 0.00 0.00 0.00 0.00 0.00 0.00 0.00 0.00 0.00 0.00 0.00 0.00 0.01 0.01 0.03 0.02 0.02 0.02 0.02 0.02 0.02 0.03 0.03 0.02 0.03 0.05 0.04 0.03 0.04 0.05 0.07
0.00 0.00 0.00 0.00 0.00 0.00 0.00 0.00 0.00 0.00 0.00 0.00 0.00 0.00 0.00 0.00 0.00 0.00 0.00 0.00 0.00 0.00 0.00 0.00 0.00 0.01 0.01 0.01 0.01 0.01 0.01 0.01 0.01 0.01 0.02 0.02 0.02 0.02 0.03 0.03 0.04 0.05 0.06 0.08
0.00 0.00 0.00 0.00 0.00 0.00 0.00 0.00 0.00 0.00 0.00 0.00 0.00 0.00 0.00 0.00 0.00 0.00 0.00 0.00 0.00 0.00 0.00 0.00 0.00 0.00 0.01 0.01 0.01 0.01 0.01 0.02 0.03 0.03 0.04 0.04 0.03 0.03 0.04 0.05 0.05 0.06 0.06 0.06
0.00 0.00 0.00 0.00 0.00 0.00 0.00 0.00 0.00 0.00 0.00 0.00 0.00 0.00 0.00 0.00 0.00 0.00 0.00 0.00 0.00 0.00 0.00 0.00 0.00 0.00 0.00 0.01 0.01 0.01 0.02 0.03 0.04 0.06 0.06 0.04 0.03 0.03 0.04 0.04 0.05 0.06 0.06 0.05
0.00 0.00 0.00 0.00 0.00 0.00 0.00 0.00 0.00 0.00 0.00 0.00 0.00 0.00 0.00 0.00 0.00 0.00 0.00 0.00 0.01 0.00 0.00 0.00 0.01 0.01 0.00 0.01 0.02 0.03 0.04 0.03 0.03 0.05 0.05 0.04 0.03 0.04 0.05 0.06 0.07 0.08 0.08 0.07
0.00 0.00 0.00 0.00 0.00 0.00 0.00 0.00 0.00 0.00 0.00 0.00 0.00 0.00 0.00 0.00 0.00 0.00 0.00 0.01 0.01 0.01 0.00 0.00 0.00 0.00 0.00 0.01 0.01 0.03 0.04 0.03 0.03 0.03 0.03 0.03 0.04 0.05 0.05 0.05 0.06 0.06 0.07 0.06
0.00 0.00 0.00 0.00 0.00 0.00 0.00 0.00 0.00 0.00 0.00 0.00 0.00 0.00 0.00 0.00 0.00 0.00 0.00 0.01 0.01 0.01 0.00 0.00 0.00 0.00 0.01 0.01 0.02 0.02 0.02 0.02 0.03 0.04 0.04 0.03 0.03 0.05 0.06 0.04 0.05 0.06 0.07 0.07
0.00 0.00 0.00 0.00 0.00 0.00 0.00 0.00 0.00 0.00 0.00 0.00 0.00 0.00 0.00 0.00 0.00 0.00 0.01 0.01 0.01 0.01 0.01 0.01 0.00 0.01 0.02 0.03 0.02 0.02 0.01 0.01 0.02 0.03 0.04 0.04 0.03 0.03 0.04 0.03 0.03 0.05 0.07 0.09
0.00 0.00 0.00 0.00 0.00 0.00 0.00 0.00 0.00 0.00 0.00 0.00 0.00 0.00 0.00 0.00 0.00 0.00 0.01 0.02 0.02 0.01 0.01 0.01 0.01 0.01 0.02 0.03 0.03 0.02 0.02 0.02 0.02 0.02 0.03 0.03 0.03 0.03 0.03 0.02 0.03 0.04 0.06 0.07
0.00 0.00 0.00 0.00 0.00 0.00 0.00 0.00 0.00 0.00 0.00 0.00 0.00 0.00 0.00 0.00 0.00 0.00 0.01 0.01 0.02 0.01 0.01 0.01 0.01 0.01 0.02 0.02 0.02 0.02 0.02 0.03 0.03 0.02 0.02 0.02 0.02 0.02 0.03 0.03 0.02 0.02 0.03 0.03
0.00 0.00 0.00 0.00 0.00 0.00 0.00 0.00 0.00 0.00 0.01 0.00 0.00 0.00 0.01 0.01 0.01 0.01 0.01 0.01 0.01 0.01 0.01 0.01 0.01 0.01 0.02 0.02 0.01 0.01 0.02 0.04 0.04 0.03 0.03 0.03 0.02 0.02 0.03 0.04 0.03 0.03 0.02 0.02
0.00 0.00 0.00 0.00 0.00 0.00 0.00 0.00 0.00 0.01 0.01 0.00 0.00 0.00 0.00 0.01 0.01 0.01 0.01 0.01 0.01 0.01 0.01 0.02 0.02 0.01 0.01 0.01 0.01 0.01 0.02 0.04 0.04 0.04 0.03 0.03 0.03 0.03 0.02 0.03 0.02 0.02 0.02 0.02
0.00 0.00 0.00 0.00 0.00 0.00 0.00 0.00 0.00 0.00 0.00 0.00 0.00 0.00 0.01 0.01 0.01 0.01 0.01 0.01 0.01 0.01 0.01 0.02 0.01 0.02 0.01 0.01 0.01 0.02 0.02 0.03 0.04 0.03 0.03 0.02 0.02 0.02 0.02 0.02 0.02 0.02 0.02 0.02
0.00 0.00 0.00 0.00 0.00 0.00 0.00 0.00 0.00 0.00 0.01 0.00 0.00 0.01 0.01 0.01 0.01 0.01 0.01 0.01 0.00 0.01 0.01 0.01 0.01 0.02 0.02 0.01 0.02 0.03 0.03 0.04 0.04 0.03 0.02 0.01 0.01 0.02 0.02 0.02 0.01 0.02 0.02 0.02
0.01 0.00 0.00 0.00 0.00 0.00 0.00 0.00 0.00 0.01 0.01 0.01 0.01 0.01 0.01 0.01 0.02 0.02 0.02 0.02 0.01 0.02 0.02 0.02 0.03 0.03 0.02 0.02 0.02 0.02 0.02 0.03 0.03 0.02 0.01 0.01 0.01 0.02 0.02 0.02 0.02 0.02 0.01 0.01
0.01 0.00 0.01 0.01 0.01 0.00 0.00 0.00 0.00 0.01 0.01 0.01 0.01 0.01 0.01 0.02 0.02 0.02 0.02 0.03 0.03 0.02 0.03 0.04 0.04 0.05 0.04 0.05 0.05 0.05 0.04 0.03 0.03 0.03 0.02 0.02 0.01 0.02 0.03 0.03 0.02 0.01 0.01 0.01
0.01 0.01 0.01 0.01 0.00 0.00 0.01 0.00 0.00 0.01 0.01 0.01 0.01 0.01 0.02 0.02 0.02 0.03 0.02 0.02 0.02 0.02 0.03 0.05 0.06 0.07 0.07 0.07 0.07 0.07 0.06 0.05 0.04 0.03 0.02 0.02 0.02 0.03 0.03 0.03 0.03 0.03 0.02 0.03
MSLP
1009.88 1010.54 1011.19 1011.81 1012.41 1012.98 1013.54 1014.11 1014.70 1015.29 1015.88 1016.44 1016.93 1017.33 1017.61 1017.75 1017.75 1017.62 1017.37 1017.05 1016.67 1016.28 1015.92 1015.61 1015.38 1015.24 1015.20 1015.26 1015.39 1015.61 1015.89 1016.21 1016.56 1016.94 1017.32 1017.69 1018.04 1018.34 1018.58 1018.72 1018.77 1018.71 1018.54 1018.28
1010.40 1010.97 1011.52 1012.05 1012.58 1013.10 1013.66 1014.26 1014.90 1015.57 1016.25 1016.89 1017.47 1017.93 1018.25 1018.42 1018.43 1018.30 1018.05 1017.72 1017.34 1016.95 1016.58 1016.27 1016.02 1015.85 1015.76 1015.76 1015.84 1016.00 1016.25 1016.55 1016.91 1017.32 1017.74 1018.17 1018.57 1018.91 1019.16 1019.31 1019.34 1019.25 1019.04 1018.75
1010.86 1011.32 1011.78 1012.22 1012.69 1013.20 1013.77 1014.41 1015.12 1015.88 1016.64 1017.37 1018.00 1018.52 1018.87 1019.06 1019.08 1018.96 1018.72 1018.42 1018.07 1017.73 1017.40 1017.12 1016.89 1016.73 1016.62 1016.58 1016.61 1016.72 1016.90 1017.16 1017.49 1017.88 1018.30 1018.73 1019.13 1019.47 1019.72 1019.86 1019.87 1019.76 1019.54 1019.23
1011.23 1011.60 1011.97 1012.35 1012.78 1013.29 1013.90 1014.60 1015.38 1016.22 1017.05 1017.84 1018.52 1019.06 1019.43 1019.61 1019.64 1019.53 1019.32 1019.06 1018.78 1018.52 1018.27 1018.07 1017.91 1017.78 1017.69 1017.63 1017.62 1017.67 1017.79 1017.98 1018.25 1018.58 1018.95 1019.35 1019.72 1020.03 1020.26 1020.38 1020.38 1020.26 1020.04 1019.73
1011.50 1011.79 1012.10 1012.45 1012.87 1013.40 1014.04 1014.80 1015.66 1016.56 1017.45 1018.27 1018.97 1019.50 1019.86 1020.03 1020.05 1019.96 1019.79 1019.59 1019.40 1019.24 1019.11 1019.02 1018.95 1018.90 1018.85 1018.80 1018.77 1018.77 1018.82 1018.94 1019.12 1019.37 1019.67 1020.00 1020.32 1020.59 1020.78 1020.88 1020.86 1020.74 1020.53 1020.25
1011.67 1011.91 1012.17 1012.51 1012.94 1013.49 1014.18 1014.99 1015.90 1016.84 1017.75 1018.58 1019.28 1019.80 1020.13 1020.28 1020.30 1020.22 1020.11 1019.99 1019.90 1019.86 1019.87 1019.91 1019.96 1019.99 1020.00 1019.99 1019.95 1019.92 1019.91 1019.94 1020.04 1020.20 1020.42 1020.67 1020.92 1021.14 1021.29 1021.37 1021.34 1021.23 1021.04 1020.79
1011.74 1011.94 1012.19 1012.52 1012.96 1013.54 1014.26 1015.10 1016.03 1016.99 1017.91 1018.73 1019.40 1019.89 1020.20 1020.35 1020.38 1020.34 1020.29 1020.26 1020.29 1020.38 1020.53 1020.71 1020.88 1021.01 1021.10 1021.12 1021.09 1021.02 1020.96 1020.92 1020.94 1021.02 1021.15 1021.33 1021.52 1021.69 1021.81 1021.86 1021.84 1021.73 1021.56 1021.35
1011.72 1011.90 1012.13 1012.46 1012.91 1013.50 1014.23 1015.08 1016.00 1016.95 1017.85 1018.64 1019.29 1019.77 1020.09 1020.25 1020.32 1020.34 1020.38 1020.46 1020.61 1020.83 1021.11 1021.41 1021.70 1021.92 1022.07 1022.13 1022.11 1022.03 1021.93 1021.84 1021.79 1021.80 1021.87 1021.98 1022.12 1022.25 1022.34 1022.38 1022.36 1022.26 1022.11 1021.92
1011.61 1011.77 1012.00 1012.33 1012.77 1013.35 1014.06 1014.88 1015.78 1016.69 1017.55 1018.32 1018.96 1019.45 1019.79 1020.01 1020.15 1020.27 1020.41 1020.61 1020.89 1021.23 1021.63 1022.04 1022.41 1022.71 1022.91 1023.00 1022.99 1022.91 1022.78 1022.66 1022.56 1022.53 1022.55 1022.62 1022.73 1022.83 1022.91 1022.94 1022.92 1022.83 1022.70 1022.53
1011.43 1011.59 1011.81 1012.13 1012.55 1013.10 1013.76 1014.53 1015.37 1016.22 1017.05 1017.80 1018.44 1018.96 1019.36 1019.66 1019.91 1020.15 1020.42 1020.75 1021.14 1021.60 1022.09 1022.58 1023.01 1023.36 1023.60 1023.71 1023.71 1023.63 1023.50 1023.37 1023.26 1023.20 1023.20 1023.26 1023.35 1023.45 1023.52 1023.56 1023.54 1023.46 1023.33 1023.18
1011.19 1011.36 1011.59 1011.89 1012.28 1012.78 1013.38 1014.07 1014.83 1015.62 1016.40 1017.13 1017.78 1018.35 1018.84 1019.25 1019.63 1020.01 1020.42 1020.87 1021.37 1021.92 1022.48 1023.01 1023.49 1023.86 1024.12 1024.25 1024.27 1024.21 1024.09 1023.97 1023.87 1023.82 1023.83 1023.89 1023.99 1024.09 1024.18 1024.22 1024.22 1024.15 1024.04 1023.89
1010.94 1011.13 1011.37 1011.66 1012.02 1012.46 1012.99 1013.59 1014.25 1014.96 1015.69 1016.40 1017.07 1017.70 1018.28 1018.82 1019.34 1019.86 1020.39 1020.96 1021.56 1022.17 1022.77 1023.34 1023.83 1024.22 1024.49 1024.64 1024.69 1024.66 1024.58 1024.49 1024.43 1024.41 1024.45 1024.53 1024.65 1024.77 1024.88 1024.94 1024.95 1024.90 1024.80 1024.67
1010.70 1010.94 1011.20 1011.50 1011.83 1012.21 1012.65 1013.16 1013.72 1014.35 1015.01 1015.69 1016.38 1017.06 1017.72 1018.38 1019.02 1019.67 1020.33 1020.99 1021.66 1022.32 1022.95 1023.53 1024.03 1024.43 1024.72 1024.90 1024.99 1025.01 1024.98 1024.95 1024.94 1024.98 1025.05 1025.17 1025.32 1025.47 1025.60 1025.69 1025.73 1025.70 1025.62 1025.50
1010.53 1010.82 1011.13 1011.43 1011.74 1012.07 1012.43 1012.84 1013.30 1013.83 1014.42 1015.06 1015.74 1016.46 1017.19 1017.94 1018.69 1019.44 1020.19 1020.94 1021.66 1022.36 1023.01 1023.60 1024.11 1024.52 1024.84 1025.06 1025.21 1025.29 1025.34 1025.38 1025.43 1025.52 1025.65 1025.81 1025.99 1026.17 1026.33 1026.44 1026.51 1026.51 1026.46 1026.37
1010.44 1010.81 1011.16 1011.49 1011.78 1012.07 1012.35 1012.66 1013.02 1013.44 1013.95 1014.53 1015.19 1015.92 1016.69 1017.50 1018.33 1019.17 1019.99 1020.79 1021.56 1022.29 1022.96 1023.57 1024.09 1024.54 1024.89 1025.17 1025.38 1025.54 1025.67 1025.79 1025.91 1026.06 1026.23 1026.42 1026.63 1026.84 1027.02 1027.16 1027.26 1027.29 1027.28 1027.21
1010.47 1010.91 1011.31 1011.65 1011.94 1012.18 1012.38 1012.60 1012.85 1013.17 1013.58 1014.09 1014.71 1015.43 1016.22 1017.07 1017.96 1018.85 1019.73 1020.58 1021.39 1022.15 1022.85 1023.48 1024.04 1024.52 1024.93 1025.28 1025.57 1025.81 1026.01 1026.20 1026.39 1026.58 1026.79 1027.01 1027.23 1027.45 1027.65 1027.82 1027.94 1028.01 1028.02 1027.99
1010.60 1011.10 1011.54 1011.89 1012.16 1012.35 1012.48 1012.60 1012.75 1012.96 1013.28 1013.72 1014.29 1014.98 1015.78 1016.65 1017.58 1018.51 1019.44 1020.34 1021.19 1021.99 1022.72 1023.39 1023.99 1024.52 1025.00 1025.41 1025.78 1026.09 1026.37 1026.62 1026.86 1027.09 1027.32 1027.55 1027.78 1028.00 1028.20 1028.38 1028.52 1028.62 1028.67 1028.67
1010.81 1011.35 1011.80 1012.16 1012.39 1012.52 1012.58 1012.60 1012.65 1012.77 1013.01 1013.38 1013.90 1014.57 1015.37 1016.26 1017.22 1018.20 1019.17 1020.11 1021.01 1021.85 1022.62 1023.33 1023.98 1024.57 1025.11 1025.59 1026.02 1026.40 1026.73 1027.04 1027.31 1027.56 1027.79 1028.02 1028.24 1028.46 1028.66 1028.84 1028.99 1029.11 1029.18 1029.20
1011.06 1011.61 1012.05 1012.37 1012.56 1012.62 1012.60 1012.54 1012.51 1012.56 1012.73 1013.05 1013.55 1014.21 1015.02 1015.93 1016.92 1017.94 1018.96 1019.95 1020.89 1021.77 1022.58 1023.33 1024.03 1024.67 1025.25 1025.79 1026.27 1026.70 1027.08 1027.41 1027.71 1027.97 1028.20 1028.42 1028.63 1028.83 1029.02 1029.20 1029.35 1029.48 1029.57 1029.61
1011.30 1011.83 1012.24 1012.51 1012.63 1012.62 1012.53 1012.40 1012.31 1012.31 1012.45 1012.75 1013.25 1013.92 1014.75 1015.70 1016.73 1017.79 1018.85 1019.88 1020.85 1021.76 1022.60 1023.39 1024.11 1024.78 1025.40 1025.97 1026.49 1026.96 1027.37 1027.72 1028.03 1028.30 1028.53 1028.74 1028.94 1029.12 1029.30 1029.47 1029.62 1029.75 1029.85 1029.92
1011.51 1012.00 1012.35 1012.55 1012.60 1012.52 1012.37 1012.20 1012.08 1012.06 1012.20 1012.53 1013.05 1013.75 1014.62 1015.61 1016.68 1017.77 1018.86 1019.90 1020.89 1021.81 1022.67 1023.46 1024.19 1024.88 1025.51 1026.10 1026.65 1027.13 1027.57 1027.94 1028.26 1028.53 1028.77 1028.97 1029.16 1029.33 1029.50 1029.66 1029.82 1029.95 1030.07 1030.15
1011.68 1012.11 1012.39 1012.51 1012.49 1012.36 1012.18 1011.99 1011.87 1011.88 1012.06 1012.43 1013.00 1013.76 1014.67 1015.70 1016.79 1017.90 1018.99 1020.03 1021.01 1021.91 1022.74 1023.52 1024.24 1024.91 1025.55 1026.14 1026.69 1027.20 1027.65 1028.04 1028.38 1028.67 1028.91 1029.12 1029.31 1029.48 1029.64 1029.80 1029.95 1030.09 1030.23 1030.34
1011.82 1012.18 1012.39 1012.44 1012.37 1012.21 1012.02 1011.85 1011.77 1011.84 1012.08 1012.52 1013.16 1013.97 1014.93 1015.98 1017.08 1018.17 1019.23 1020.24 1021.17 1022.02 1022.81 1023.53 1024.22 1024.87 1025.49 1026.08 1026.64 1027.16 1027.63 1028.05 1028.41 1028.72 1028.98 1029.20 1029.39 1029.56 1029.72 1029.87 1030.03 1030.18 1030.33 1030.47
1011.97 1012.27 1012.41 1012.41 1012.31 1012.14 1011.96 1011.84 1011.83 1011.98 1012.31 1012.84 1013.55 1014.41 1015.39 1016.45 1017.52 1018.57 1019.57 1020.50 1021.35 1022.12 1022.83 1023.50 1024.13 1024.74 1025.34 1025.93 1026.49 1027.03 1027.53 1027.97 1028.36 1028.69 1028.97 1029.20 1029.40 1029.56 1029.72 1029.87 1030.03 1030.19 1030.36 1030.53
1012.19 1012.43 1012.51 1012.48 1012.36 1012.21 1012.07 1012.02 1012.10 1012.34 1012.77 1013.38 1014.14 1015.04 1016.03 1017.06 1018.07 1019.05 1019.96 1020.78 1021.53 1022.21 1022.83 1023.42 1024.00 1024.57 1025.15 1025.73 1026.30 1026.86 1027.38 1027.86 1028.27 1028.62 1028.92 1029.15 1029.34 1029.50 1029.64 1029.79 1029.94 1030.11 1030.29 1030.49
1012.53 1012.70 1012.75 1012.69 1012.57 1012.44 1012.37 1012.40 1012.57 1012.90 1013.41 1014.09 1014.90 1015.80 1016.77 1017.74 1018.68 1019.55 1020.35 1021.05 1021.69 1022.26 1022.80 1023.32 1023.84 1024.39 1024.95 1025.53 1026.12 1026.70 1027.24 1027.74 1028.17 1028.53 1028.82 1029.04 1029.22 1029.36 1029.47 1029.59 1029.73 1029.89 1030.08 1030.31
Thickness
5812 5811 5807 5815 5822 5823 5820 5814 5808 5811 5819 5815 5812 5811 5813 5815 5814 5811 5809 5807 5805 5804 5808 5807 5803 5801 5797 5793 5789 5786 5783 5780 5777 5775 5773 5770 5768 5768 5767 5766 5764 5762 5760 5759
5797 5801 5814 5818 5817 5815 5813 5807 5805 5807 5815 5813 5810 5810 5816 5816 5814 5815 5813 5810 5809 5807 5806 5805 5804 5801 5798 5794 5790 5788 5784 5782 5779 5777 5774 5773 5771 5769 5769 5767 5765 5763 5761 5759
5795 5804 5810 5806 5804 5804 5806 5807 5806 5803 5807 5813 5809 5802 5809 5815 5817 5817 5817 5816 5814 5811 5808 5805 5803 5801 5799 5796 5793 5791 5787 5784 5781 5779 5776 5773 5769 5767 5768 5766 5766 5765 5762 5760
5794 5800 5799 5798 5799 5803 5797 5811 5809 5803 5799 5799 5803 5791 5805 5812 5810 5812 5814 5815 5815 5815 5813 5809 5805 5801 5800 5799 5797 5793 5789 5786 5783 5780 5777 5773 5769 5766 5767 5768 5768 5766 5763 5761
5784 5793 5792 5791 5800 5804 5805 5811 5807 5804 5800 5798 5800 5795 5805 5813 5805 5810 5815 5817 5818 5818 5815 5812 5809 5806 5804 5803 5799 5795 5790 5786 5784 5781 5778 5773 5772 5771 5771 5770 5767 5765 5765 5762
5787 5796 5798 5799 5803 5805 5804 5800 5797 5799 5800 5779 5792 5790 5794 5810 5809 5814 5818 5819 5820 5820 5819 5816 5813 5810 5806 5805 5801 5798 5792 5787 5784 5781 5779 5774 5773 5771 5769 5766 5765 5764 5765 5763
5769 5781 5794 5800 5790 5793 5796 5786 5772 5769 5771 5778 5795 5790 5797 5813 5818 5817 5818 5819 5821 5822 5820 5817 5813 5809 5806 5803 5801 5798 5793 5787 5785 5782 5779 5776 5773 5771 5767 5765 5764 5763 5764 5762
5758 5762 5782 5792 5792 5787 5791 5792 5775 5764 5767 5782 5784 5786 5804 5817 5820 5821 5821 5823 5822 5822 5821 5819 5816 5813 5808 5805 5802 5798 5794 5789 5786 5782 5779 5778 5775 5772 5771 5768 5766 5764 5763 5763
5764 5766 5784 5791 5798 5797 5784 5788 5802 5787 5782 5778 5786 5792 5804 5814 5813 5814 5816 5817 5818 5820 5820 5819 5818 5815 5811 5807 5804 5800 5795 5790 5787 5784 5780 5777 5774 5772 5770 5768 5765 5764 5762 5763
5772 5762 5772 5782 5789 5789 5796 5794 5785 5777 5761 5762 5775 5781 5792 5798 5802 5807 5810 5812 5815 5818 5819 5819 5818 5816 5814 5810 5806 5802 5797 5791 5787 5784 5781 5779 5775 5772 5770 5768 5765 5763 5761 5760
5771 5760 5761 5770 5770 5775 5778 5780 5784 5783 5781 5769 5765 5779 5804 5802 5803 5804 5809 5812 5814 5815 5817 5817 5816 5815 5813 5810 5806 5800 5795 5790 5786 5783 5780 5778 5775 5772 5769 5766 5764 5762 5759 5757
5764 5764 5755 5764 5778 5788 5786 5784 5781 5769 5764 5773 5775 5781 5804 5805 5806 5806 5807 5809 5812 5814 5816 5816 5814 5812 5810 5807 5804 5799 5795 5789 5786 5782 5779 5776 5773 5770 5768 5765 5763 5760 5757 5755
5757 5752 5740 5743 5755 5769 5773 5779 5783 5782 5774 5770 5767 5777 5799 5802 5802 5804 5804 5805 5806 5807 5809 5809 5808 5806 5805 5802 5800 5797 5793 5788 5785 5781 5777 5774 5770 5767 5765 5763 5760 5758 5754 5752
5756 5750 5750 5747 5757 5767 5764 5769 5776 5775 5766 5767 5772 5779 5787 5792 5793 5797 5799 5800 5802 5801 5801 5801 5800 5799 5798 5797 5795 5792 5789 5785 5782 5778 5774 5770 5767 5764 5762 5760 5757 5754 5751 5748
5750 5745 5750 5759 5766 5768 5766 5766 5769 5769 5774 5772 5776 5778 5784 5788 5791 5792 5794 5795 5795 5795 5795 5795 5793 5792 5792 5791 5789 5786 5782 5779 5777 5772 5768 5765 5763 5761 5759 5756 5753 5751 5747 5745
5742 5738 5743 5744 5755 5759 5757 5763 5766 5767 5771 5773 5776 5776 5789 5791 5792 5788 5788 5789 5788 5790 5790 5790 5788 5787 5786 5785 5783 5781 5777 5774 5771 5767 5763 5761 5759 5756 5753 5751 5749 5746 5743 5740
5735 5731 5731 5735 5745 5745 5740 5758 5762 5764 5770 5771 5767 5775 5782 5780 5780 5781 5783 5784 5784 5786 5785 5784 5783 5781 5780 5780 5778 5775 5773 5770 5766 5761 5758 5756 5754 5751 5748 5746 5744 5741 5739 5735
5725 5726 5731 5734 5727 5715 5748 5767 5767 5763 5766 5771 5771 5774 5776 5776 5778 5780 5782 5781 5780 5781 5780 5779 5778 5777 5776 5775 5773 5771 5769 5765 5761 5756 5753 5751 5749 5746 5744 5742 5739 5736 5734 5731
5725 5722 5726 5727 5722 5728 5740 5753 5758 5754 5755 5767 5766 5767 5771 5773 5772 5772 5776 5777 5776 5777 5776 5774 5774 5773 5770 5769 5767 5765 5762 5758 5754 5751 5747 5746 5744 5741 5739 5736 5734 5732 5729 5726
5715 5718 5721 5719 5716 5716 5737 5752 5758 5752 5743 5763 5763 5761 5764 5765 5760 5763 5767 5769 5770 5770 5769 5768 5768 5767 5763 5761 5761 5757 5754 5750 5746 5744 5742 5741 5739 5736 5734 5731 5728 5726 5724 5721
5701 5703 5710 5713 5714 5727 5739 5746 5746 5729 5737 5755 5759 5758 5759 5758 5759 5760 5762 5761 5761 5761 5761 5761 5759 5758 5755 5755 5753 5749 5745 5741 5739 5738 5736 5735 5733 5731 5728 5725 5723 5721 5719 5716
5700 5703 5702 5709 5708 5714 5731 5736 5732 5733 5743 5748 5751 5752 5752 5752 5752 5752 5752 5752 5752 5752 5752 5752 5750 5748 5747 5747 5745 5740 5736 5734 5733 5732 5729 5727 5726 5725 5722 5719 5716 5714 5712 5709
5695 5701 5709 5708 5709 5715 5724 5726 5729 5733 5735 5739 5743 5745 5745 5743 5743 5743 5742 5743 5743 5743 5743 5744 5742 5739 5737 5736 5735 5732 5729 5728 5726 5724 5722 5720 5718 5716 5715 5712 5709 5707 5705 5704
5684 5690 5695 5696 5703 5708 5713 5718 5722 5726 5729 5733 5736 5737 5737 5734 5735 5734 5734 5733 5733 5733 5733 5734 5732 5729 5727 5726 5726 5723 5721 5721 5719 5716 5714 5712 5710 5708 5706 5704 5702 5700 5698 5697
5677 5681 5686 5686 5693 5698 5703 5708 5713 5717 5721 5723 5726 5728 5728 5727 5726 5727 5725 5724 5724 5723 5724 5724 5722 5719 5717 5716 5714 5712 5712 5712 5710 5707 5705 5703 5701 5699 5694 5691 5689 5688 5684 5683
5669 5672 5676 5681 5686 5691 5693 5699 5704 5706 5709 5712 5714 5716 5719 5720 5719 5719 5717 5716 5715 5714 5714 5713 5712 5710 5707 5705 5704 5703 5702 5702 5701 5699 5696 5695 5692 5689 5686 5682 5677 5670 5670 5668